Location: Newark
(23.3970°S, 47.6010°W)
Time: 01:06:21
(UTC+00:00)

Tiros 1 despin weight - Pass Details

Date: 19 February 2020
Orbit: 593 x 642 km, 48.2° (Epoch: 28 March)

Event Time Altitude Azimuth Distance (km) Brightness Sun altitude
Rises 00:53:39 0° 235° (SW) 2,941 ? -39.2°
Reaches altitude 10° 00:56:09 10° 244° (WSW) 2,020 ? -39.7°
Enters shadow 00:56:24 11° 245° (WSW) 1,932 ? -39.7°
Maximum altitude 01:00:24 36° 310° (NW) 996 - -40.4°
Drops below altitude 10° 01:04:34 10° 16° (NNE) 1,974 - -41.1°
Sets 01:06:59 0° 25° (NNE) 2,864 - -41.5°
